Date,TemperatureHighF,TemperatureAvgF,TemperatureLowF,DewpointHighF,DewpointAvgF,DewpointLowF,HumidityHigh,HumidityAvg,HumidityLow,PressureMaxIn,PressureMinIn,WindSpeedMaxMPH,WindSpeedAvgMPH,GustSpeedMaxMPH,PrecipitationSumIn
2013-1-1,53.6,49.9,44.6,52.0,45.0,-99.9,96,89,70,29.95,29.80,13,-8,0,0.78
2013-1-2,43.5,37.7,34.6,43.0,36.4,32.0,96,94,91,30.09,29.91,8,2,0,0.00
2013-1-3,41.5,35.4,32.5,33.0,27.6,-99.9,91,79,68,30.27,30.06,7,-9,0,0.00
2013-1-4,47.9,36.5,29.4,31.0,18.8,-99.9,78,57,43,30.34,30.23,6,-61,0,0.00
2013-1-5,48.3,39.8,33.8,36.0,26.9,20.0,87,62,42,30.30,30.15,6,-82,0,0.06
2013-1-6,49.2,41.4,37.8,42.0,36.9,33.0,90,84,71,30.18,30.08,5,1,0,0.00
2013-1-7,54.1,41.6,31.5,36.0,14.7,-99.9,88,62,49,30.26,30.14,9,-8,0,0.00
2013-1-8,59.6,50.0,41.2,46.0,38.7,30.0,78,66,58,30.20,30.09,11,5,0,0.00
2013-1-9,58.9,54.4,50.4,57.0,50.9,46.0,94,88,78,30.21,30.12,11,6,0,0.07
2013-1-10,63.9,60.9,58.4,64.0,57.2,-99.9,100,95,89,30.19,29.83,27,-2,0,0.06
2013-1-11,65.5,63.3,61.0,64.0,61.8,59.0,97,94,87,29.99,29.89,13,5,0,0.25
2013-1-12,69.8,66.5,62.9,65.0,62.5,57.0,97,87,78,29.95,29.82,18,6,0,0.04
2013-1-13,68.1,62.5,47.3,64.0,59.9,46.0,95,91,83,29.95,29.77,14,6,0,0.45
2013-1-14,46.7,40.0,34.6,45.0,39.1,34.0,97,96,95,30.09,29.93,12,3,0,1.05
2013-1-15,49.4,42.6,38.2,49.0,42.5,38.0,100,99,96,30.00,29.80,11,2,0,0.63
2013-1-16,46.5,40.4,38.9,47.0,40.4,39.0,100,100,100,29.95,29.82,10,2,0,0.16
2013-1-17,39.3,35.4,31.6,39.0,35.4,32.0,100,100,100,30.25,29.77,13,4,0,0.24
2013-1-18,47.1,38.1,30.7,43.0,35.5,31.0,100,91,73,30.45,30.26,7,2,0,0.16
2013-1-19,56.0,46.5,34.7,35.0,31.6,28.0,77,58,40,30.30,30.09,8,3,0,0.00
2013-1-20,61.3,52.2,43.2,40.0,36.3,32.0,70,55,44,30.12,29.99,5,0,0,0.00
2013-1-21,52.0,44.7,33.7,38.0,30.0,18.0,78,58,42,30.12,29.97,13,2,0,0.00
2013-1-22,45.2,35.2,27.0,21.0,17.4,15.0,62,49,37,30.28,30.11,7,1,0,0.00
2013-1-23,54.5,44.4,33.5,43.0,28.1,16.0,67,53,42,30.28,30.07,6,1,0,0.00
2013-1-24,53.6,48.5,41.6,43.0,32.3,19.0,78,56,36,30.20,30.06,12,3,0,0.00
2013-1-25,62.9,51.4,40.2,53.0,37.1,20.0,91,60,40,30.14,29.95,17,6,0,0.18
2013-1-26,54.4,46.6,37.0,47.0,37.3,29.0,93,73,46,30.18,30.02,8,1,0,0.01
2013-1-27,58.0,50.8,45.2,39.0,33.6,30.0,63,53,37,30.22,30.13,13,6,0,0.00
2013-1-28,63.9,55.0,49.9,54.0,47.8,37.0,88,77,59,30.19,30.05,12,7,0,0.00
2013-1-29,68.6,62.0,54.1,64.0,59.0,51.0,96,90,83,30.05,29.66,21,7,0,0.00
2013-1-30,68.6,54.8,36.9,65.0,51.1,30.0,93,87,75,29.85,29.45,18,6,0,1.80
2013-1-31,50.8,40.9,31.0,32.0,27.8,25.0,81,61,44,30.09,29.86,10,2,0,0.00